全球星 M015星 (GLOBALSTAR M015)

导读

GLOBALSTAR M015又名全球星15号,由阿莱尼亚宇航公司、劳拉空间系统公司联合研发,于1998年4月24日在美国卡纳维拉尔角太空军基地发射升空,属于全球星低轨通信星座的一员。该卫星质量450kg,运行在高度1410km、倾角52°的近圆轨道,设计寿命7.5年,主要承担全球卫星语音通话、低速数据传输等移动通信服务,填补偏远地区通信覆盖空白。

基本信息
目录编号:
25308
目录名称:
GLOBALSTAR M015
国际标识:
1998-023C
轨道中心:
EARTH
卫星名称:
全球星 M015星
卫星全名:
全球星 M015星 (GLOBALSTAR M015)
卫星状态:
在轨 (已飞行10321 天)
发射日期:
1998-04-24 UTC
国别 :
(GLOB)
星等 :
--
轨道信息
数据来源 国际轨道数据 AOE轨道数据
星历时间 2026-07-27T21:40:16+0800
10小时前
查看轨道信息
2026-07-27T17:00:00+0800
14小时前
查看轨道信息
半长轴 8296.385km 8296.386km
偏心率 0.0014066 0.0014068
轨道倾角 51.983° 51.983°
近地点辐角 78.780° 78.161°
升交点赤经 43.146° 43.623°
平近点角 293.983° 209.267°
近地点 1906.578km 1906.577km
远地点 1929.918km 1929.921km
周期 125.341分钟 125.341分钟
每日圈数 11.488663 11.488659
详细信息
固有亮度:
5
最大亮度:
7.9
平衡模式:
三轴稳定
覆盖范围:
全球
运营商:
全球星公司
运营商所在国:
美国
使用方式:
暂无
卫星简介
全球星星座由48颗卫星加8颗备份星组成。这些卫星分布在8个倾角为52度的圆形轨道平面上,每个轨道平面6颗卫星,另有1 颗备用星。轨道高度约为1414km,传输时延和处理时延小于300ms,整个系统的覆盖区为南北纬70度以内的地区。该卫星仍在工作。
2D轨道图
3D轨道图
轨道高度分析图
轨道倾角分析图
轨道综合分析图
查看轨道综合分析图